#timestamp,LO_Frequency,Hit,StdDev 
1685919615.9,286047008.4,Y
1685919635.7,286047003.9,P
1685919655.6,286047007.6,P
1685919675.4,286047004.9,P
1685919695.2,286047004.7,Y
1685919715.1,286047001.0,P
1685919716.0,286047001.0,N
1685919735.8,286047000.1,N
1685919755.6,286047001.1,N
1685919775.5,286046999.3,N
1685919795.3,286046998.9,N
1685919815.2,286047000.2,N
1685919835.9,286047004.3,N
1685919855.7,286047004.1,N
1685919875.6,286047005.9,N
1685919895.4,286047007.0,N
1685919915.2,286047006.3,N
1685919935.1,286047010.8,Y
1685919936.0,286047010.8,P
1685919955.8,286047009.0,N
1685919975.7,286047009.0,N
1685919995.5,286047006.7,N
1685920015.3,286047004.5,N
1685920035.2,286047006.7,N
1685920055.0,286047008.9,Y
1685920055.9,286047008.9,P
1685920075.7,286046998.1,N
1685920095.6,286047000.2,N
1685920115.4,286047002.2,N
1685920135.3,286047001.5,N
1685920155.1,286047003.4,N
1685920156.0,286047003.4,N
1685920175.8,286047011.9,Y
1685920195.7,286047000.8,P
1685920215.5,286046999.3,N
1685920235.3,286046997.6,N
1685920255.2,286046993.3,Y
1685920275.0,286046995.1,P
1685920275.9,286046995.1,N
1685920295.8,286046997.4,N
1685920315.6,286046997.3,N
1685920335.4,286046997.6,N
1685920355.3,286046996.5,N
1685920375.1,286047001.0,N
1685920395.9,286046998.5,N
1685920415.7,286046999.9,N
1685920435.5,286047000.3,N
1685920455.4,286046999.7,N
1685920475.2,286047002.2,N
1685920495.0,286047003.6,N
1685920495.9,286047003.6,N
1685920515.8,286047007.4,N
1685920535.6,286047006.9,N
1685920555.4,286047006.1,N
1685920575.3,286047012.2,Y
1685920595.1,286047014.8,P
1685920615.9,286047016.5,N
1685920635.7,286047017.8,N
1685920655.5,286047021.7,Y
1685920675.4,286047010.6,P
1685920695.2,286047013.9,P
1685920715.1,286047012.5,P
1685920716.0,286047012.5,Y
1685920735.8,286047000.9,P
1685920755.6,286046998.8,N
1685920775.5,286046997.3,N
1685920795.3,286047001.2,N
1685920815.1,286046998.6,N
1685920835.9,286046999.1,N
1685920855.7,286046998.4,N
1685920875.6,286046998.3,N
1685920895.4,286047000.5,N
1685920915.2,286047001.3,N
1685920935.1,286047005.8,N
1685920936.0,286047005.8,N
1685920955.8,286047007.7,N
1685920975.6,286047009.6,N
1685920995.5,286047007.7,N
1685921015.3,286047008.6,N
1685921035.2,286047008.4,N
1685921055.9,286047008.8,N
1685921075.7,286047010.0,N
1685921095.6,286047011.9,N
1685921115.4,286047012.1,N
1685921135.2,286047009.6,N
1685921155.1,286047010.0,N
1685921156.0,286047010.0,N
1685921175.8,286047010.4,N
1685921195.7,286047008.1,N
1685921215.5,286047011.5,N
1685921235.3,286047014.3,N
1685921255.2,286047015.9,Y
1685921275.0,286047015.5,P
1685921275.9,286047015.5,P
1685921295.7,286047015.1,P
1685921315.6,286047015.1,Y
1685921335.4,286047000.4,P
1685921355.3,286046996.9,N
1685921375.1,286047000.9,N
1685921376.0,286047000.9,N
1685921395.8,286047000.6,N
1685921415.7,286046999.9,N
1685921435.5,286047002.4,N
1685921455.3,286047000.4,N
1685921475.2,286047001.2,N
1685921495.0,286047001.5,N
1685921495.9,286047001.5,N
1685921515.8,286047001.3,N
1685921535.6,286047004.5,N
1685921555.4,286047010.8,Y
1685921575.3,286047006.6,P
1685921625.1,286047007.6,E
1685921635.1,286047001.9,N
1685921636.0,286047001.9,P
1685921655.8,286047001.2,P
1685921675.6,286047000.0,N
1685921695.5,286047002.7,Y
1685921715.3,286046999.8,P
1685921735.2,286047002.5,P
1685921755.9,286047001.5,N
1685921775.7,286047001.4,N
1685921795.6,286047003.7,Y
1685921815.4,286047004.3,P
1685921835.2,286047003.3,N
1685921855.1,286047005.6,P
1685921856.0,286047005.6,Y
1685921875.8,286047001.1,P
1685921895.7,286046998.7,N
1685921915.5,286046998.9,N
1685921935.3,286047000.9,N
1685921955.2,286046998.8,N
1685921975.0,286046996.5,N
1685921975.9,286046996.5,N
1685921995.7,286046997.7,N
1685922015.6,286046997.0,N
1685922035.4,286046996.8,N
1685922055.3,286046996.5,N
1685922075.1,286047000.7,N
1685922076.0,286047000.7,N
1685922095.8,286047002.7,N
1685922115.7,286047003.2,N
1685922135.5,286047011.9,Y
1685922155.3,286047010.7,P
1685922175.2,286047012.3,N
1685922195.0,286047013.3,N
1685922195.9,286047013.3,N
1685922215.8,286047014.6,N
1685922235.6,286047015.4,N
1685922255.4,286047011.2,N
1685922275.3,286047011.9,N
1685922295.1,286047013.6,Y
1685922315.9,286047004.0,P
1685922335.7,286047004.6,N
1685922355.5,286047008.9,N
1685922375.4,286047009.3,Y
1685922395.2,286047001.4,P
1685922415.0,286047003.5,N
1685922415.9,286047003.5,N
1685922435.8,286047001.7,N
1685922455.6,286047002.2,N
1685922475.5,286047000.7,N
1685922495.3,286046999.9,N
1685922515.2,286047000.1,N
1685922535.9,286047003.9,N
1685922555.7,286047007.4,Y
1685922575.6,286047004.7,P
1685922595.4,286047008.8,P
1685922615.2,286047009.7,P
1685922635.1,286047009.8,Y
1685922636.0,286047009.8,P
1685922655.8,286047005.5,P
1685922675.7,286047006.3,P
1685922695.5,286047010.3,Y
1685922715.3,286047004.6,P
1685922735.2,286047006.9,P
1685922755.0,286047007.9,P
1685922755.9,286047007.9,Y
1685922775.8,286047005.5,P
1685922795.6,286047003.5,P
1685922815.4,286047005.2,P
1685922835.3,286047007.2,Y
1685922855.1,286046998.4,P
1685922875.8,286046997.7,N
1685922895.7,286046999.9,N
1685922915.5,286047000.3,N
1685922935.4,286047000.3,N
1685922955.2,286047001.2,N
1685922975.0,286046998.5,N
1685922975.9,286046998.5,N
1685922995.8,286046998.6,N
1685923015.6,286047002.3,N
1685923035.4,286047002.6,N
1685923055.3,286046999.9,N
1685923075.1,286047000.8,N
1685923095.9,286047000.8,N
1685923115.7,286047000.0,N
1685923135.5,286047004.0,N
1685923155.4,286047001.5,N
1685923175.2,286047003.7,N
1685923195.0,286047005.4,N
1685923195.9,286047005.4,N
